Regional Weather Roundup
Issued by NWS

Home | Current Version | Previous Version | Graphics & Text | Print | Product List | Glossary On
Versions: 1 2 3 4 5 6 7 8 9 10 11 12 13 14 15 16 17 18 19 20 21 22 23 24 25 26 27 28 29 30 31 32 33 34 35 36 37 38 39 40 41 42 43 44 45 46 47 48 49 50
000
ASUS45 KABQ 302010
RWRNM
WEATHER ROUNDUP FOR NEW MEXICO
NATIONAL WEATHER SERVICE ALBUQUERQUE NM
100 PM MST FRI JAN 30 2015

NOTE: "FAIR" MEANS FEW OR NO CLOUDS BELOW 12,000 FEET AGL WITH NO
       SIGNIFICANT WEATHER OR OBSTRUCTIONS TO VISION.

      THIS PRODUCT IS RELEASED AS TWO VERSIONS.  ONE VERSION NEAR
      THE TOP OF THE HOUR CONTAINING PRELIMINARY DATA FROM ALBUQUERQUE
      AND OTHER STATIONS.  A FINAL VERSION WITH ADDITIONAL DATA IS
      ISSUED ABOUT 10 MINUTES AFTER THE HOUR.

NMZ501-503-504-510>518-302100-
NORTHWEST PLATEAU/NORTHCENTRAL MOUNTAINS

CITY           SKY/WX    TMP DP  RH WIND       PRES   REMARKS
FARMINGTON     LGT SNOW  32  31  96 E7        30.12F VSB 1   WCI  26
LOS ALAMOS     LGT SNOW  29  29 100 S10       30.21F WCI  20
SANTA FE       FLURRIES  31  27  85 S9        30.19F WCI  23
TAOS           CLOUDY    28  25  86 CALM      30.21F VSB 1/4
ANGEL FIRE     LGT SNOW  30  28  93 S7        30.18F VSB 3/4 WCI  23

$$
NMZ402-403-502-505>509-302100-
WESTCENTRAL MOUNTAINS/SOUTHWEST MOUNTAINS

CITY           SKY/WX    TMP DP  RH WIND       PRES   REMARKS
GALLUP         LGT SNOW  34  32  92 N3        30.07F FOG
GRANTS         CLOUDY    32  29  90 SE14G28   30.12F WCI  22
SILVER CITY    LGT RAIN  39  39 100 SE9       30.13F WCI  33

$$
NMZ407-409-411-412-302100-
SOUTHERN DESERTS

CITY           SKY/WX    TMP DP  RH WIND       PRES   REMARKS
LORDSBURG      LGT RAIN  41  39  93 SE18G28   30.06F
DEMING         CLOUDY    44  40  85 E15       30.11F
LAS CRUCES     RAIN      44  39  83 E14       30.13F
HOLLOMAN AFB   DRIZZLE   45  41  87 N5        30.14F
ALAMOGORDO     CLOUDY    45  41  87 N6        30.16F
T OR C         LGT RAIN  39  38  96 N6        30.14F WCI  35

$$
NMZ519>523-302100-
CENTRAL VALLEYS/CENTRAL HIGHLANDS

CITY           SKY/WX    TMP DP  RH WIND       PRES   REMARKS
ALBUQUERQUE    FOG       34  33  96 N10       30.17F VSB 1/2 WCI  26
DOUBLE EAGLE   LGT SNOW  30  30 100 N8        30.19F WCI  23
MORIARTY ARPT  CLOUDY    31  29  90 SE8       30.23F WCI  24
CLINES CORNERS FOG       27  25  92 SE13      30.18F VSB 1   WCI  16
BELEN          CLOUDY    34  34 100 NW6       30.18F FOG     WCI  29
SOCORRO        DRIZZLE   37  37  99 NW3       30.17F

$$
NMZ524>526-539-540-302100-
SOUTHCENTRAL MOUNTAINS

CITY           SKY/WX    TMP DP  RH WIND       PRES   REMARKS
RUIDOSO        CLOUDY    32  30  93 SE14G21   30.20F FOG     WCI  22

$$
NMZ527>531-302100-
NORTHEAST HIGHLANDS/NORTHEAST PLAINS

CITY           SKY/WX    TMP DP  RH WIND       PRES   REMARKS
LAS VEGAS      LGT SNOW  29  26  89 S10       30.21F FOG     WCI  20
RATON          LGT SNOW  29  28  96 SW9       30.20F VSB 3/4 WCI  20
CLAYTON        LGT SNOW  36  32  85 S16       30.24F FOG     WCI  26

$$
NMZ532>537-302100-
EASTCENTRAL PLAINS

CITY           SKY/WX    TMP DP  RH WIND       PRES   REMARKS
TUCUMCARI      LGT RAIN  35  33  92 S3        30.28F FOG
CANNON AFB     LGT RAIN  37  32  83 SE8       30.28F WCI  31
CLOVIS AIRPORT CLOUDY    37  28  70 S9        30.29F WCI  31

$$
NMZ028-029-538-302100-
SOUTHEAST PLAINS

CITY           SKY/WX    TMP DP  RH WIND       PRES   REMARKS
ROSWELL        CLOUDY    41  31  67 SE9       30.29F
ARTESIA        CLOUDY    41  32  70 SE6       30.29F
CARLSBAD       CLOUDY    42  34  73 SE7       30.28F
HOBBS          CLOUDY    41  32  70 E8        30.29F


$$



USA.gov is the U.S. government's official web portal to all federal, state and local government web resources and services.